Location: Oshawa
(43.9000°N, 78.8670°W)
Time: 08:03:59
(UTC-04:00)

PAYLOAD A - Visible Passes

Search period start: 28 March 2017 00:00
Search period end: 07 April 2017 00:00
Orbit: 692 x 832 km, 98.2° (Epoch: 26 March)

Date Brightness Start Highest point End Pass type
(mag) Time Alt. Az. Time Alt. Az. Time Alt. Az.
29 Mar 6.3 06:15:45 10° NE 06:20:20 29° E 06:24:59 10° SSE visible
30 Mar 7.2 05:39:42 10° ENE 05:42:19 14° E 05:44:58 10° ESE visible
01 Apr 6.8 06:02:07 10° NE 06:06:16 23° E 06:10:28 10° SE visible
04 Apr 7.0 05:48:41 10° NE 05:52:11 17° E 05:55:42 10° SE visible
06 Apr 6.5 06:11:31 10° NE 06:16:07 28° E 06:20:44 10° SSE visible
